Flag for Canada Weather past 2 weeks in Cranbrook, British Columbia, Canada

Now
55 °F

Scattered clouds.


Feels Like: 53 °F
Forecast: 47 / 78 °F
Wind: 9 mph from West

Location: Cranbrook

Current Time: May 23, 2015 at 9:12:55 AM

Latest Report: May 23, 2015 at 8:00 AM


Visibility: 25 mi

Pressure: 30.06 "Hg

Humidity: 44%

Dew point: 34 °F

Location of CranbrookLocation

Historic Weather in Cranbrook — Graph

°F

Cranbrook temperature yesterday

Maximum temperature yesterday: 79 °F (at 4:00 PM)
Minimum temperature yesterday: 48 °F (at 5:00 AM)
Average temperature yesterday: 64 °F

Past Weeks' High & Low Weather Summary

 TemperatureHumidityPressure
High79 °F (May 22, 4:00 PM)93% (May 11, 4:00 AM)30.31 "Hg (May 11, 4:00 AM)
Low30 °F (May 9, 6:00 AM)12% (May 21, 5:00 PM)29.67 "Hg (May 15, 8:00 PM)
Average54 °F47%30.03 "Hg
* Reported May 8 8:00 AM — May 23 8:00 AM, Cranbrook, Weather by CustomWeather, © 2015

Note: Actual official high and low records may vary slightly from our data, if they occured in-between our weather recording intervals... More about our weather records

Advertising

Cranbrook weather history for previous 24 hours

 ConditionsComfort  
Time TempWeatherWind HumidityBarometerVisibility
8:00 AM
Sat, May 23
55 °FScattered clouds.9 mph44%30.06 "Hg25 mi
7:00 AM52 °FPassing clouds.8 mph50%30.05 "Hg25 mi
6:00 AM50 °FPassing clouds.8 mph50%30.04 "Hg25 mi
5:00 AM52 °FClear.10 mph47%30.03 "Hg25 mi
4:00 AM52 °FClear.10 mph47%30.02 "Hg25 mi
2:00 AM54 °FPassing clouds.2 mph44%29.99 "Hg25 mi
1:00 AM57 °FPassing clouds.5 mph39%29.97 "Hg25 mi
12:00 AM61 °FPassing clouds.9 mph31%29.95 "Hg25 mi
11:00 PM
Fri, May 22
64 °FScattered clouds.10 mph28%29.91 "Hg25 mi
10:00 PM66 °FPassing clouds.10 mph26%29.88 "Hg45 mi
9:00 PM72 °FPassing clouds.8 mph20%29.84 "Hg45 mi
8:00 PM75 °FScattered clouds.12 mph19%29.81 "Hg45 mi
7:00 PM79 °FBroken clouds.3 mph16%29.81 "Hg45 mi
6:00 PM79 °FScattered clouds.7 mph17%29.82 "Hg45 mi
5:00 PM79 °FScattered clouds.7 mph15%29.83 "Hg45 mi
4:00 PM79 °FPassing clouds.6 mph16%29.84 "Hg45 mi
3:00 PM77 °FPartly sunny.5 mph15%29.85 "Hg25 mi
2:00 PM75 °FPartly sunny.5 mph19%29.87 "Hg25 mi
1:00 PM73 °FPartly sunny.2 mph20%29.88 "Hg25 mi
12:00 PM70 °FPartly sunny.6 mph23%29.90 "Hg25 mi
11:00 AM66 °FPartly sunny.6 mph30%29.92 "Hg25 mi
10:00 AM63 °FScattered clouds.3 mph32%29.93 "Hg25 mi
9:00 AM57 °FScattered clouds.2 mph39%29.93 "Hg25 mi
Weather by CustomWeather, © 2015

See weather overviewHow to use our weather pages